Regional Weather Roundup
Issued by NWS

Home | Current Version | Previous Version | Graphics & Text | Print | Product List | Glossary On
Versions: 1 2 3 4 5 6 7 8 9 10 11 12 13 14 15 16 17 18 19 20 21 22 23 24 25 26 27 28 29 30 31 32 33 34 35 36 37 38 39 40 41 42 43 44 45 46 47 48 49 50
000
ASUS45 KTFX 030710
RWRMT
MONTANA REGIONAL WEATHER ROUNDUP
NATIONAL WEATHER SERVICE GREAT FALLS MT
100 AM MDT THU SEP 03 2015

NOTE: "FAIR" INDICATES FEW OR NO CLOUDS BELOW 12000 FEET WITH NO
SIGNIFICANT WEATHER AND/OR OBSTRUCTIONS TO VISIBILITY.

MTZ001>007-043-030800-
WEST OF THE DIVIDE

CITY           SKY/WX    TMP DP  RH WIND       PRES   REMARKS
KALISPELL      CLOUDY    55  36  48 CALM      29.88S
MISSOULA       CLOUDY    57  41  55 NW9       29.91F
BUTTE          CLEAR     52  38  58 CALM      29.92R
MULLAN PASS    CLOUDY    40  37  89 S7        29.95R
DEER LODGE       N/A     55  39  54 NW15G22   29.94S
EUREKA           N/A     54  37  54 S3        29.87
HAMILTON         N/A     57  41  54 N9        29.89R
LIBBY            N/A     52  37  58 CALM      29.88R
$$

MTZ008-052>055-030800-
SOUTHWEST MONTANA

CITY           SKY/WX    TMP DP  RH WIND       PRES   REMARKS
BOZEMAN        PTCLDY    60  37  42 S7        29.82R
DILLON           N/A    N/A N/A N/A MISG      29.84F
W YELLOWSTONE  PTCLDY    46  30  53 CALM      29.98S
$$

MTZ009-010-012-014-046-048-049-054-030800-
EAST SLOPES AND CENTRAL MONTANA

CITY           SKY/WX    TMP DP  RH WIND       PRES   REMARKS
CUT BANK       CLOUDY    54  36  50 CALM      29.88S
GREAT FALLS    CLOUDY    61  38  42 NE14      29.87R
MALMSTROM AFB  CLOUDY    61  38  43 N15       29.87S
HELENA         PTCLDY    61  40  45 W8        29.82F
CONRAD           N/A     57  42  57 CALM      29.91R
$$

MTZ011-013-016-021-045-047-050-051-030800-
NORTH CENTRAL MONTANA

CITY           SKY/WX    TMP DP  RH WIND       PRES   REMARKS
HAVRE          CLOUDY    65  36  34 NW5       29.83S
LEWISTOWN      PTCLDY    52  37  56 SW6       29.90R
N BAR RANCH      N/A     57  37  47 NW12      29.90R
CHINOOK          N/A     63  39  42 W6        29.82R
FORT BENTON      N/A     64  37  36 N3        29.84F
$$

MTZ017>020-022>027-061-062-030800-
NORTHEAST MONTANA

CITY           SKY/WX    TMP DP  RH WIND       PRES   REMARKS
GLASGOW        PTCLDY    72  38  29 N20G28    29.69R
JORDAN           N/A     73  38  27 N28G37    29.68S
SIDNEY         MOCLDY    66  46  48 CALM        N/A
WOLF POINT     CLOUDY    79  41  25 N17       29.63
PLENTYWOOD       N/A     72  45  37 N17G23    29.67R
POPLAR           N/A     73  43  33 N7        29.65R
$$

MTZ028>42-056>058-030800-
SOUTHCENTRAL AND SOUTHEAST MONTANA

CITY           SKY/WX    TMP DP  RH WIND       PRES   REMARKS
BAKER          CLEAR     66  50  56 SE9       29.70F
BILLINGS       MOCLDY    71  34  25 N13       29.78R
LIVINGSTON     PTCLDY    64  34  32 CALM      29.82R
MILES CITY     PTCLDY    73  45  36 S7        29.62R
EKALAKA          N/A     78  41  26 SE10      29.74F
FORSYTH          N/A     73  39  29 W8        29.64S
LAUREL           N/A     69  32  25 N3        29.79S
$$

REGIONAL REPORTS...DAKOTAS

CITY           SKY/WX    TMP DP  RH WIND       PRES   REMARKS
WILLISTON      MOCLDY    72  53  51 S3        29.64S
MINOT          PTCLDY    70  66  87 SE7       29.68F
DICKINSON      PTCLDY    68  58  70 S9        29.69F
CROSBY           N/A     73  61  64 S10       29.64S
BISMARCK       PTCLDY    71  69  93 E7        29.71F
GRAND FORKS    PTCLDY    71  67  87 SE15      29.79S
FARGO          CLEAR     73  68  84 SE13      29.80F
BUFFALO SD       N/A     70  55  59 S3        29.68F
RAPID CITY     CLEAR     67  48  50 SE3       29.79F
$$

REGIONAL REPORTS...WYOMING/IDAHO/WASHINGTON

CITY           SKY/WX    TMP DP  RH WIND       PRES   REMARKS
GILLETTE       CLEAR     75  35  23 S18       29.83S
SHERIDAN       PTCLDY    67  38  34 S5        29.78R
BUFFALO WY     PTCLDY    80  34  19 W14       29.86F
CODY           CLEAR     72  36  26 SW13      29.87S
YELLOWSTONE LA   N/A     44  35  70 NW3       30.11F
IDAHO FALLS    PTCLDY    57  46  66 N5        29.83S
SALMON         PTCLDY    52  36  54 CALM      29.77R
BOISE          MOCLDY    64  42  44 W14       29.75R
SPOKANE        MOCLDY    54  43  66 S8        29.86R
$$

REGIONAL REPORTS...ALBERTA

CITY           SKY/WX    TMP DP  RH WIND       PRES   REMARKS
EDMONTON       CLEAR     46  41  81 W8        29.81R
CALGARY        PTCLDY    45  37  76 NW12      29.87S
LETHBRIDGE     PTCLDY    48  36  61 SW8       29.85S
MEDICINE HAT   PTCLDY    54  45  71 W3        29.82S
WATERTON GATE    N/A     46  36  66 SW6         N/A
CARDSTON         N/A     46  36  66 NE5         N/A
MILK RIVER       N/A     50  39  66 NW5         N/A
ONEFOUR          N/A     55  32  41 N6          N/A
$$

REGIONAL REPORTS...SASKATCHEWAN

CITY           SKY/WX    TMP DP  RH WIND       PRES   REMARKS
SWIFT CURRENT  MOCLDY    59  43  55 NW12G17   29.79R
REGINA         PTCLDY    59  52  77 NW10      29.71R
SASKATOON      MOCLDY    61  48  63 W12       29.72R
CYPRESS HILLS    N/A     55  34  44 NW5         N/A
VAL MARIE        N/A     64  34  32 N16G22      N/A
ROCKGLEN         N/A     66  39  37 NW17G25     N/A
ASSINIBOIA       N/A     48  45  87 W10         N/A
$$



USA.gov is the U.S. government's official web portal to all federal, state and local government web resources and services.